HAIYANG-1B

Last updated on Fri Oct 04 2024 00:02:25 GMT+0000 (Coordinated Universal Time)

1 31113U 07010A 24277.57080196 .00000838 00000+0 33601-3 0 9999 2 31113 98.3016 274.6861 0012434 242.5679 117.4240 14.30705674911738
UTC large
Height (km)
Speed (km/s)
/
Latitude / Longitude
Inclination (degrees)
Orbital Period (minutes)
Azimuth
Elevation
Range (km)
Doppler Factor

Next 0 passes for location: London (51.5072 / 0.1276)

Sorry there are no passes over London.